North Bend, OR

9:57 AM PDT on April 30, 2017 (GMT -0700)
North Bend Municipal

Weather History for KOTH - March, 2013

Change the Weather History Date:

Monday, March 4, 2013

  Actual Average Record
Temperature  
Mean Temperature 45 °F 47 °F  
Max Temperature 55 °F 54 °F 76 °F (1929)
Min Temperature 34 °F 41 °F 24 °F (1923)
Degree Days  
Heating Degree Days 20 18  
Month to date heating degree days 68 72  
Since 1 July heating degree days 3106 3246  
Cooling Degree Days 0 0  
Month to date cooling degree days 0 0  
Year to date cooling degree days 0 0  
Moisture  
Dew Point 39 °F    
Average Humidity 85    
Maximum Humidity 100    
Minimum Humidity 66    
Precipitation  
Precipitation 0.00 in 0.27 in 1.35 in (1991)
Month to date precipitation 0.00 1.12  
Year to date precipitation 6.77 18.90  
Sea Level Pressure  
Sea Level Pressure 30.05 in    
Wind  
Wind Speed 6 mph (SSW)    
Max Wind Speed 14 mph    
Max Gust Speed 25 mph    
Visibility 10 miles    
Events      
T = Trace of Precipitation, MM = Missing Value Source: NWS Daily Summary

Daily Weather History Graph

Daily Weather History Graph

Search for Another Location

Airport or City:

Trip Planner

Search our weather history database for the weather conditions in past years. The results will help you decide how hot, cold, wet, or windy it might be!

Date:

Astronomy

Mar. 04, 2013 Rise Set
Actual Time 6:47 AM PST 6:10 PM PST
Civil Twilight 6:19 AM PST 6:38 PM PST
Nautical Twilight 5:46 AM PST 7:11 PM PST
Astronomical Twilight 5:12 AM PST 7:45 PM PST
Moon 1:10 AM PST (3/4) 10:49 AM PST (3/4)
Length of Visible Light 12h 19m
Length of Day
11h 22m
Waning Gibbous, 51% of the Moon is Illuminated
Mar 4
Waning Gibbous
Mar 4
Last Quarter
Mar 11
New
Mar 19
First Quarter
Mar 27
Full

Hourly Weather History & Observations

Time (PST) Temp. Windchill Dew Point Humidity Pressure Visibility Wind Dir Wind Speed Gust Speed Precip Events Conditions
12:15 AM 37.4 °F - 37.4 °F 100% 30.18 in 10.0 mi Calm Calm - N/A   Clear
12:35 AM 33.8 °F - 33.8 °F 100% 30.18 in 9.0 mi Calm Calm - N/A   Clear
12:55 AM 35.6 °F - 35.6 °F 100% 30.17 in 10.0 mi Calm Calm - N/A   Clear
1:15 AM 35.6 °F - 33.8 °F 93% 30.17 in 10.0 mi Calm Calm - N/A   Clear
1:35 AM 33.8 °F - 33.8 °F 100% 30.16 in 10.0 mi Calm Calm - N/A   Clear
1:55 AM 37.4 °F 33.8 °F 37.4 °F 100% 30.15 in 10.0 mi NNE 4.6 mph - N/A   Clear
2:15 AM 37.4 °F 33.8 °F 37.4 °F 100% 30.15 in 10.0 mi NNE 4.6 mph - N/A   Clear
2:35 AM 35.6 °F 29.9 °F 35.6 °F 100% 30.14 in 10.0 mi North 6.9 mph - N/A   Clear
2:55 AM 35.6 °F - 33.8 °F 93% 30.14 in 10.0 mi Calm Calm - N/A   Clear
3:15 AM 35.6 °F 32.8 °F 33.8 °F 93% 30.13 in 10.0 mi NNE 3.5 mph - N/A   Clear
3:55 AM 35.6 °F 30.7 °F 33.8 °F 93% 30.12 in 10.0 mi NNE 5.8 mph - N/A   Clear
4:15 AM 35.6 °F 30.7 °F 35.6 °F 100% 30.11 in 10.0 mi North 5.8 mph - N/A   Clear
4:35 AM 35.6 °F 32.8 °F 33.8 °F 93% 30.10 in 10.0 mi North 3.5 mph - N/A   Clear
4:55 AM 35.6 °F - 33.8 °F 93% 30.10 in 10.0 mi Calm Calm - N/A   Clear
5:15 AM 37.4 °F 32.8 °F 35.6 °F 93% 30.09 in 10.0 mi NE 5.8 mph - N/A   Clear
5:35 AM 37.4 °F - 35.6 °F 93% 30.09 in 10.0 mi Calm Calm - N/A   Clear
5:55 AM 35.6 °F 31.7 °F 33.8 °F 93% 30.08 in 10.0 mi South 4.6 mph - N/A   Clear
6:15 AM 35.6 °F - 33.8 °F 93% 30.07 in 10.0 mi Calm Calm - N/A   Clear
6:35 AM 35.6 °F - 33.8 °F 93% 30.08 in 10.0 mi Calm Calm - N/A   Clear
6:55 AM 35.6 °F 31.7 °F 33.8 °F 93% 30.08 in 10.0 mi SSE 4.6 mph - N/A   Clear
7:15 AM 35.6 °F 29.9 °F 33.8 °F 93% 30.09 in 10.0 mi SSE 6.9 mph - N/A   Clear
7:35 AM 35.6 °F 29.9 °F 35.6 °F 100% 30.09 in 10.0 mi SSE 6.9 mph - N/A   Clear
7:55 AM 37.4 °F 32.1 °F 35.6 °F 93% 30.08 in 10.0 mi SE 6.9 mph - N/A   Clear
8:15 AM 39.2 °F 34.2 °F 37.4 °F 93% 30.09 in 10.0 mi SSE 6.9 mph - N/A   Clear
8:35 AM 41.0 °F 36.4 °F 37.4 °F 87% 30.09 in 10.0 mi SSE 6.9 mph - N/A   Clear
8:55 AM 42.8 °F 38.0 °F 37.4 °F 81% 30.08 in 10.0 mi SE 8.1 mph - N/A   Clear
9:15 AM 44.6 °F 41.4 °F 37.4 °F 76% 30.08 in 10.0 mi SSE 5.8 mph - N/A   Clear
9:35 AM 46.4 °F 42.9 °F 39.2 °F 76% 30.07 in 10.0 mi South 6.9 mph - N/A   Clear
9:55 AM 48.2 °F - 37.4 °F 66% 30.07 in 10.0 mi South 5.8 mph - N/A   Clear
10:15 AM 48.2 °F - 37.4 °F 66% 30.08 in 10.0 mi South 3.5 mph - N/A   Clear
10:55 AM 50.0 °F - 42.8 °F 76% 30.09 in 10.0 mi WSW 5.8 mph - N/A   Mostly Cloudy
11:15 AM 51.8 °F - 44.6 °F 76% 30.08 in 10.0 mi WSW 8.1 mph - N/A   Scattered Clouds
11:35 AM 51.8 °F - 44.6 °F 76% 30.07 in 10.0 mi West 8.1 mph - N/A   Partly Cloudy
11:55 AM 51.8 °F - 44.6 °F 76% 30.06 in 10.0 mi West 8.1 mph - N/A   Scattered Clouds
12:15 PM 51.8 °F - 44.6 °F 76% 30.06 in 10.0 mi West 13.8 mph - N/A   Partly Cloudy
12:35 PM 51.8 °F - 44.6 °F 76% 30.06 in 10.0 mi WSW 12.7 mph 21.9 mph N/A   Partly Cloudy
12:55 PM 51.8 °F - 44.6 °F 76% 30.04 in 10.0 mi West 11.5 mph - N/A   Scattered Clouds
1:15 PM 53.6 °F - 46.4 °F 77% 30.03 in 10.0 mi WSW 10.4 mph - N/A   Scattered Clouds
1:35 PM 53.6 °F - 44.6 °F 72% 30.02 in 10.0 mi WNW 6.9 mph - N/A   Overcast
1:55 PM 55.4 °F - 46.4 °F 72% 30.02 in 10.0 mi West 8.1 mph - N/A   Mostly Cloudy
2:15 PM 53.6 °F - 44.6 °F 72% 30.01 in 10.0 mi WSW 16.1 mph 19.6 mph N/A   Mostly Cloudy
2:35 PM 53.6 °F - 42.8 °F 67% 30.00 in 10.0 mi WSW 17.3 mph 24.2 mph N/A   Scattered Clouds
2:55 PM 53.6 °F - 42.8 °F 67% 30.01 in 10.0 mi SW 11.5 mph 20.7 mph N/A   Clear
3:15 PM 53.6 °F - 42.8 °F 67% 30.01 in 10.0 mi SW 12.7 mph 24.2 mph N/A   Clear
3:35 PM 51.8 °F - 42.8 °F 71% 30.01 in 10.0 mi WSW 19.6 mph 25.3 mph N/A   Clear
3:55 PM 51.8 °F - 41.0 °F 67% 30.01 in 10.0 mi SW 12.7 mph 19.6 mph N/A   Clear
4:15 PM 51.8 °F - 41.0 °F 67% 30.01 in 10.0 mi WSW 13.8 mph 19.6 mph N/A   Clear
4:35 PM 51.8 °F - 42.8 °F 71% 30.01 in 10.0 mi SW 10.4 mph 21.9 mph N/A   Clear
4:55 PM 50.0 °F - 41.0 °F 71% 30.00 in 10.0 mi SW 13.8 mph 19.6 mph N/A   Clear
5:15 PM 50.0 °F - 41.0 °F 71% 30.01 in 10.0 mi SSW 5.8 mph - N/A   Clear
5:35 PM 48.2 °F - 41.0 °F 76% 30.01 in 10.0 mi SW 6.9 mph - N/A   Clear
5:55 PM 48.2 °F - 41.0 °F 76% 30.00 in 10.0 mi SW 12.7 mph 25.3 mph N/A   Clear
6:35 PM 44.6 °F 40.7 °F 41.0 °F 87% 29.99 in 10.0 mi SE 6.9 mph - N/A   Clear
6:55 PM 44.6 °F 41.4 °F 39.2 °F 81% 29.99 in 10.0 mi South 5.8 mph - N/A   Clear
7:15 PM 44.6 °F 43.1 °F 39.2 °F 81% 29.98 in 10.0 mi South 3.5 mph - N/A   Clear
7:35 PM 42.8 °F 40.1 °F 39.2 °F 87% 29.98 in 10.0 mi SE 4.6 mph - N/A   Clear
7:55 PM 44.6 °F - 39.2 °F 81% 29.97 in 10.0 mi Calm Calm - N/A   Clear
8:15 PM 42.8 °F 40.1 °F 39.2 °F 87% 29.96 in 10.0 mi SE 4.6 mph - N/A   Clear
8:35 PM 42.8 °F - 41.0 °F 93% 29.96 in 10.0 mi Calm Calm - N/A   Clear
8:55 PM 42.8 °F - 41.0 °F 93% 29.96 in 10.0 mi Calm Calm - N/A   Clear
9:15 PM 42.8 °F 41.1 °F 41.0 °F 93% 29.96 in 10.0 mi SE 3.5 mph - N/A   Clear
9:35 PM 39.2 °F 35.9 °F 39.2 °F 100% 29.95 in 10.0 mi SE 4.6 mph - N/A   Clear
9:55 PM 41.0 °F 36.4 °F 41.0 °F 100% 29.94 in 10.0 mi SE 6.9 mph - N/A   Clear
10:15 PM 41.0 °F 36.4 °F 41.0 °F 100% 29.93 in 10.0 mi SE 6.9 mph - N/A   Clear
11:35 PM 42.8 °F 38.6 °F 39.2 °F 87% 29.90 in 10.0 mi SE 6.9 mph - N/A   Overcast
11:55 PM 42.8 °F 39.3 °F 39.2 °F 87% 29.90 in 10.0 mi South 5.8 mph - N/A   Overcast